Temperature
4 4 4 4 5 5 5 5 5 5 5 6 6 6 6 6 6 6 6 7 7 7 7 7 7 7 7 7 7 7 6 6 6 6 6 6 6 6
3 4 4 4 4 4 4 4 4 5 5 5 6 6 6 6 6 6 6 6 6 6 6 6 6 6 6 6 6 6 6 6 6 6 6 6 6 6
3 3 3 3 4 4 4 4 4 4 4 5 5 5 5 5 5 5 5 5 5 6 6 6 6 6 6 6 6 6 6 6 5 6 6 6 5 5
2 2 2 3 3 3 3 3 3 3 4 4 4 4 4 4 5 5 5 5 5 5 5 5 5 5 5 5 5 5 5 5 5 5 5 5 5 5
1 1 2 2 2 3 3 3 3 3 3 3 3 4 4 4 4 4 4 4 4 5 5 5 5 5 5 5 5 5 5 5 5 5 5 5 5 5
0 1 1 1 2 2 2 2 2 2 2 2 3 3 3 3 3 3 3 4 4 4 4 4 4 4 4 4 4 4 4 4 4 4 4 4 4 4
-0 -0 0 1 1 1 1 1 1 2 2 2 2 2 2 3 3 3 3 3 3 3 4 4 4 4 4 4 4 4 4 4 4 4 3 3 3 3
-1 -1 -1 -0 0 0 0 1 1 1 1 1 1 2 2 2 2 2 2 2 2 3 3 3 3 3 4 4 4 4 4 3 3 3 3 3 3 3
-2 -2 -1 -1 -1 -0 -0 -0 0 0 0 1 1 1 1 2 2 2 2 2 2 2 2 3 3 3 3 3 3 3 3 3 3 2 2 2 2 2
-3 -2 -2 -2 -2 -1 -1 -1 -1 -0 -0 -0 0 1 1 1 1 1 1 1 1 1 1 1 2 2 2 3 3 3 2 2 2 2 2 2 2 2
-3 -3 -3 -3 -2 -2 -2 -2 -1 -1 -1 -1 -1 -0 0 0 0 0 0 -0 0 1 1 1 1 1 2 2 2 2 2 2 1 1 1 1 1 1
-4 -4 -3 -3 -3 -3 -2 -2 -2 -2 -1 -1 -1 -1 -1 -0 -0 -0 -0 -1 -1 -1 0 -0 0 -0 -0 1 1 1 1 1 1 1 1 1 1 0
-4 -4 -4 -4 -3 -3 -3 -3 -3 -2 -2 -2 -2 -1 -1 -1 -1 -1 -1 -1 -1 -1 -1 -1 -1 -1 -1 -1 -0 0 0 0 0 0 0 0 0 -0
-5 -5 -5 -4 -4 -4 -4 -3 -3 -3 -3 -3 -2 -2 -2 -2 -2 -2 -2 -2 -1 -1 -1 -1 -1 -1 -1 -1 -1 -1 -1 -0 -0 -0 -0 -0 -0 -0
-6 -5 -5 -5 -5 -4 -4 -4 -4 -4 -3 -3 -3 -3 -3 -2 -2 -2 -2 -2 -2 -2 -2 -2 -2 -2 -2 -2 -2 -2 -2 -1 -1 -1 -1 -1 -1 -1
-6 -6 -5 -5 -5 -5 -5 -4 -4 -4 -4 -4 -4 -4 -3 -3 -3 -3 -3 -3 -3 -2 -2 -2 -2 -2 -2 -2 -2 -2 -2 -2 -2 -2 -2 -2 -1 -2
-7 -6 -6 -6 -6 -6 -6 -5 -5 -5 -5 -5 -5 -4 -4 -4 -4 -4 -4 -3 -3 -3 -3 -3 -3 -3 -3 -3 -3 -3 -3 -3 -3 -3 -3 -2 -2 -2
-7 -7 -7 -7 -7 -7 -6 -6 -6 -6 -6 -6 -5 -5 -5 -5 -5 -5 -4 -4 -4 -4 -4 -4 -4 -4 -3 -3 -3 -3 -3 -3 -3 -3 -3 -3 -3 -2
-8 -8 -8 -8 -8 -7 -7 -7 -7 -6 -6 -6 -6 -6 -6 -6 -6 -6 -5 -5 -5 -5 -5 -4 -4 -4 -5 -5 -4 -4 -4 -4 -4 -4 -4 -4 -4 -3
-8 -8 -8 -8 -8 -8 -8 -8 -7 -7 -7 -7 -7 -7 -7 -7 -7 -6 -6 -6 -6 -6 -6 -5 -5 -5 -5 -5 -5 -4 -4 -5 -5 -5 -4 -5 -4 -4
-9 -9 -9 -9 -8 -9 -8 -8 -8 -8 -8 -8 -8 -7 -7 -7 -7 -7 -7 -7 -7 -7 -6 -6 -6 -6 -6 -6 -6 -5 -5 -5 -5 -5 -5 -5 -5 -5
-10 -9 -9 -9 -9 -9 -9 -9 -9 -9 -9 -9 -8 -8 -8 -8 -8 -8 -8 -7 -7 -7 -7 -7 -6 -6 -6 -6 -6 -6 -6 -5 -5 -5 -6 -6 -6 -6
-10 -10 -10 -10 -10 -10 -10 -10 -9 -9 -9 -9 -9 -9 -9 -9 -8 -8 -8 -8 -8 -8 -8 -7 -7 -7 -7 -7 -7 -7 -6 -6 -6 -6 -6 -6 -6 -6
Wind_Speed
5 5 5 4 4 4 4 4 4 4 5 4 3 3 5 5 6 6 7 9 9 9 9 8 8 7 7 7 8 7 7 7 9 9 9 9 9 9
4 5 5 4 4 3 4 4 4 4 5 3 3 2 3 4 6 6 7 8 9 9 9 9 8 7 7 7 7 7 7 7 8 9 9 9 9 10
4 5 6 5 4 4 4 4 4 3 5 3 2 2 3 3 3 4 6 6 7 9 10 9 8 8 7 7 7 7 8 7 7 9 9 9 9 10
5 4 5 4 5 4 4 5 4 4 4 5 3 3 3 4 3 3 3 4 5 8 9 9 9 8 8 8 8 8 8 8 8 8 9 10 10 10
5 5 5 4 5 4 5 5 5 4 3 4 4 3 3 2 2 2 2 2 4 6 8 8 9 9 9 9 8 8 8 9 9 9 9 10 10 10
5 5 5 5 5 5 5 5 4 4 3 4 4 3 3 2 3 3 3 3 3 4 5 6 8 8 9 9 9 9 9 9 10 10 10 10 10 10
5 5 5 5 6 5 5 5 5 4 4 4 4 3 3 3 4 3 4 3 3 3 3 4 4 5 7 9 9 10 10 10 10 10 11 10 11 11
5 5 5 5 6 7 7 6 6 6 6 5 5 5 6 5 3 4 3 3 4 3 3 4 3 4 5 7 9 11 11 11 11 11 11 11 11 11
5 5 4 5 5 4 6 7 6 8 8 7 6 7 6 6 5 5 5 5 5 3 3 5 4 5 5 8 10 11 10 10 11 11 11 11 12 12
5 5 6 5 5 4 4 5 5 5 7 6 6 6 6 5 6 6 5 3 2 2 2 4 4 4 4 6 10 11 11 10 10 10 11 12 12 13
5 5 5 5 7 7 5 5 5 5 6 7 8 8 8 8 6 3 3 3 4 3 2 2 2 2 3 4 7 9 9 10 10 11 11 12 12 12
4 5 7 7 8 7 6 6 6 6 4 4 5 5 5 5 7 6 6 5 4 3 3 3 2 1 2 3 3 5 8 10 11 11 12 12 11 8
5 4 5 8 9 8 8 6 8 6 4 5 4 3 3 3 3 4 5 5 5 4 4 3 2 2 3 3 3 4 5 5 7 9 11 11 11 9
5 4 5 8 8 8 7 7 7 6 3 3 4 4 4 3 3 4 4 5 5 5 5 5 3 4 3 4 4 3 4 5 5 5 7 10 11 12
5 7 8 8 8 6 6 6 5 4 3 4 4 4 3 3 3 2 3 3 3 4 5 6 4 4 4 5 4 3 3 4 4 4 4 5 6 6
4 6 8 8 6 5 5 4 3 3 3 4 4 3 2 2 3 3 3 3 3 4 4 6 6 5 5 5 5 5 4 3 3 4 4 5 6 7
4 3 2 2 2 2 2 2 2 2 3 3 3 3 3 3 3 3 3 3 3 4 4 3 4 5 5 5 5 5 4 4 3 3 3 5 5 6
4 2 2 2 3 3 3 3 2 2 3 3 3 3 4 4 3 3 3 3 4 4 4 3 2 2 2 3 6 5 4 4 3 3 3 4 6 5
2 2 2 3 3 3 3 3 3 3 2 3 3 3 3 3 4 4 3 3 4 4 4 3 3 3 5 6 4 5 4 4 3 4 4 4 6 6
2 2 3 3 3 3 3 3 3 3 2 3 3 3 3 4 4 4 4 4 4 4 4 4 4 4 6 6 4 4 5 4 4 5 4 4 5 7
3 3 3 3 3 3 3 3 3 3 3 3 3 3 3 3 4 4 5 6 5 4 5 5 5 5 2 1 2 3 3 6 6 5 4 3 4 4
4 4 3 3 3 3 3 3 3 3 3 3 3 3 3 3 4 4 4 5 5 5 5 4 2 2 2 4 5 4 3 3 5 6 7 6 4 4
5 5 4 4 4 3 3 4 4 4 4 4 4 4 4 4 4 4 4 5 5 5 4 4 3 3 3 4 4 4 4 3 3 3 4 6 8 9
Wind_Direction
228 227 233 230 220 219 214 211 211 233 240 228 224 220 224 229 237 237 238 241 243 247 251 253 248 241 242 240 232 228 227 227 225 225 226 229 235 243
235 224 232 231 222 223 219 222 223 227 241 229 225 240 228 238 236 234 245 240 239 241 243 246 241 240 242 238 232 230 227 228 231 227 229 233 236 241
255 232 234 229 221 224 224 219 221 222 240 263 256 255 222 227 242 239 246 243 239 240 241 239 236 237 237 235 236 233 229 230 236 236 234 237 239 241
261 249 248 242 226 225 225 222 222 222 227 250 262 249 238 223 224 227 242 246 244 241 239 236 235 237 236 235 235 232 229 231 237 240 239 240 242 243
252 247 247 244 238 229 225 223 223 228 227 236 252 255 256 228 221 241 241 251 253 242 238 237 236 235 233 234 236 235 233 232 234 238 242 244 244 244
254 249 246 239 242 232 228 224 220 221 226 228 244 248 249 225 199 219 247 244 254 248 240 241 241 237 234 235 236 235 234 234 235 234 236 244 244 243
260 254 250 251 250 242 237 224 217 217 218 227 236 245 242 218 212 214 239 250 257 232 227 241 239 242 238 235 234 235 234 234 236 239 235 242 245 243
264 261 260 257 262 265 263 246 232 220 217 222 233 234 239 241 226 215 228 242 252 218 217 248 237 242 245 231 240 240 237 239 240 241 243 243 247 246
262 263 264 262 259 259 267 260 256 252 239 227 229 236 229 227 218 220 221 232 242 231 225 241 229 240 251 243 245 240 238 240 243 244 245 246 248 251
259 256 253 257 254 252 253 253 251 254 252 248 238 240 236 222 216 222 230 240 275 249 225 234 230 244 262 248 241 237 238 240 242 245 251 251 249 251
262 258 254 254 261 253 247 248 254 260 263 260 261 255 251 243 228 214 217 225 255 254 224 214 222 255 248 243 239 237 241 245 248 251 253 254 252 252
264 259 264 265 268 259 239 236 245 256 252 263 268 271 265 254 245 223 214 221 234 241 214 200 210 215 249 233 233 243 247 248 249 253 255 253 252 251
266 263 263 274 271 268 258 242 247 254 241 240 242 245 246 239 236 239 229 224 226 240 212 197 216 220 233 261 255 244 240 246 248 254 255 253 251 248
265 264 266 280 277 273 269 259 258 259 241 233 236 239 237 236 237 237 242 241 241 243 225 206 221 226 235 261 263 248 245 247 247 259 258 258 255 250
272 277 283 288 288 275 273 275 261 242 233 238 241 247 240 232 230 236 241 242 267 258 235 230 228 232 235 245 252 253 267 260 245 254 260 259 258 257
284 284 288 291 292 286 282 280 263 242 241 240 244 247 239 235 238 244 248 244 260 269 253 236 229 222 241 250 246 252 249 242 244 259 274 276 264 249
286 276 268 278 283 282 283 275 260 251 254 243 239 243 245 246 250 245 246 241 247 257 266 259 247 237 240 239 244 243 244 258 254 253 263 269 265 258
302 277 273 271 269 272 278 280 270 262 257 252 243 241 242 242 251 252 242 238 247 257 261 259 252 273 280 268 233 231 235 248 254 256 255 260 269 268
317 286 280 269 268 269 268 270 273 269 260 256 253 250 250 246 246 245 238 241 249 253 257 254 238 232 251 267 254 218 227 246 249 256 254 257 265 271
312 285 283 279 271 268 269 271 273 273 268 261 255 251 248 246 247 246 242 240 246 254 259 251 237 237 242 252 261 268 244 231 237 249 264 279 284 284
313 292 285 285 277 272 273 273 269 266 265 263 260 257 253 247 247 248 246 249 252 251 250 255 250 257 259 242 265 273 265 256 253 252 249 270 285 279
320 306 296 289 280 277 274 273 273 270 266 264 264 263 260 252 251 252 250 248 248 251 258 264 253 231 224 239 258 266 278 289 290 281 261 252 248 239
319 314 305 298 288 279 273 271 270 270 268 264 261 259 258 256 255 253 253 252 252 254 257 262 260 245 241 239 250 262 258 269 289 294 292 287 279 274
Height
1493 1495 1497 1499 1500 1502 1504 1506 1508 1507 1507 1508 1510 1511 1513 1515 1516 1517 1519 1520 1521 1523 1524 1524 1525 1526 1527 1528 1529 1530 1530 1531 1532 1532 1533 1534 1534 1534
1488 1489 1491 1493 1494 1496 1498 1500 1502 1502 1502 1502 1505 1506 1507 1509 1510 1512 1513 1514 1516 1517 1518 1519 1520 1521 1522 1523 1524 1524 1525 1526 1526 1527 1528 1528 1529 1529
1482 1483 1485 1487 1488 1490 1492 1494 1495 1497 1497 1497 1499 1501 1502 1503 1504 1506 1507 1508 1509 1511 1512 1513 1514 1515 1516 1517 1518 1519 1519 1520 1521 1521 1522 1523 1523 1524
1476 1477 1479 1480 1482 1484 1486 1487 1489 1491 1492 1492 1493 1495 1496 1497 1498 1499 1501 1502 1503 1504 1506 1507 1508 1509 1510 1511 1512 1513 1513 1514 1515 1516 1516 1517 1518 1518
1470 1471 1473 1474 1476 1478 1479 1481 1483 1484 1486 1487 1487 1489 1490 1491 1492 1493 1495 1496 1497 1498 1500 1501 1501 1502 1503 1504 1505 1506 1507 1508 1509 1509 1510 1511 1511 1512
1464 1465 1466 1468 1469 1471 1473 1475 1476 1478 1480 1481 1482 1482 1484 1485 1486 1487 1488 1489 1491 1492 1493 1494 1495 1496 1497 1498 1499 1500 1501 1501 1502 1503 1504 1504 1505 1505
1459 1460 1460 1462 1463 1465 1467 1468 1470 1472 1473 1475 1476 1477 1478 1478 1479 1481 1482 1483 1484 1485 1486 1487 1488 1489 1490 1491 1492 1493 1494 1495 1496 1496 1497 1497 1498 1499
1454 1454 1455 1456 1457 1459 1461 1463 1464 1465 1467 1468 1469 1470 1471 1472 1474 1475 1476 1477 1477 1479 1479 1480 1482 1482 1483 1484 1485 1486 1487 1488 1489 1490 1490 1491 1492 1492
1449 1449 1449 1450 1451 1453 1455 1456 1458 1459 1461 1462 1463 1463 1465 1466 1468 1468 1469 1470 1471 1472 1473 1473 1475 1475 1477 1478 1479 1480 1481 1481 1482 1483 1483 1484 1485 1485
1443 1444 1444 1445 1446 1447 1448 1449 1451 1452 1454 1455 1457 1458 1459 1461 1462 1463 1463 1465 1465 1467 1467 1467 1467 1468 1470 1471 1472 1473 1474 1475 1476 1476 1477 1477 1478 1478
1438 1438 1439 1439 1440 1441 1442 1443 1444 1446 1448 1449 1451 1452 1453 1455 1456 1457 1458 1459 1459 1459 1461 1461 1461 1461 1462 1464 1465 1466 1467 1468 1469 1469 1470 1470 1471 1471
1433 1433 1433 1434 1435 1436 1437 1438 1438 1439 1441 1443 1444 1445 1446 1448 1449 1451 1452 1453 1453 1453 1454 1455 1455 1456 1456 1456 1458 1459 1460 1461 1462 1462 1463 1463 1464 1464
1427 1427 1428 1429 1430 1430 1432 1432 1433 1434 1435 1437 1438 1439 1440 1441 1443 1444 1446 1447 1447 1447 1449 1450 1449 1450 1451 1450 1450 1452 1453 1454 1455 1455 1456 1456 1457 1457
1422 1422 1422 1423 1424 1425 1425 1426 1427 1429 1430 1430 1431 1432 1433 1434 1436 1438 1439 1440 1441 1442 1443 1444 1444 1445 1445 1444 1444 1444 1446 1447 1447 1448 1448 1449 1449 1450
1417 1417 1417 1418 1418 1419 1419 1420 1421 1423 1423 1424 1424 1425 1427 1428 1430 1431 1432 1433 1434 1435 1436 1438 1438 1439 1440 1439 1438 1438 1439 1439 1440 1441 1441 1441 1441 1441
1412 1412 1412 1413 1413 1413 1414 1414 1416 1417 1417 1418 1419 1420 1421 1422 1423 1425 1426 1426 1427 1427 1430 1431 1432 1433 1433 1433 1433 1432 1433 1433 1433 1434 1434 1433 1434 1434
1407 1406 1406 1406 1407 1407 1408 1408 1410 1411 1412 1412 1413 1414 1415 1416 1417 1418 1419 1420 1420 1421 1422 1424 1425 1426 1427 1427 1427 1427 1427 1427 1427 1427 1426 1425 1426 1426
1404 1402 1402 1402 1402 1402 1403 1403 1405 1405 1406 1407 1407 1408 1409 1410 1411 1412 1413 1414 1415 1415 1416 1417 1419 1419 1420 1420 1421 1420 1421 1420 1420 1421 1420 1419 1418 1419
1400 1399 1399 1399 1399 1399 1399 1399 1400 1401 1402 1402 1403 1403 1404 1405 1406 1407 1408 1408 1409 1409 1410 1412 1413 1413 1413 1412 1412 1415 1415 1414 1414 1414 1414 1413 1412 1412
1397 1397 1396 1396 1396 1396 1396 1396 1396 1396 1397 1398 1398 1398 1399 1400 1401 1401 1402 1403 1403 1403 1404 1405 1407 1407 1408 1408 1407 1407 1409 1409 1409 1408 1408 1407 1407 1407
1395 1394 1393 1393 1392 1392 1392 1392 1392 1392 1393 1393 1393 1394 1394 1395 1395 1396 1397 1398 1398 1398 1398 1399 1400 1402 1403 1403 1402 1400 1402 1404 1404 1403 1402 1401 1400 1399
1392 1391 1390 1390 1389 1389 1389 1389 1389 1389 1389 1389 1389 1389 1389 1390 1390 1391 1392 1393 1393 1393 1393 1394 1395 1397 1397 1397 1396 1395 1396 1397 1398 1398 1398 1397 1395 1393
1389 1388 1387 1387 1386 1385 1385 1385 1385 1384 1384 1384 1384 1384 1384 1385 1385 1386 1387 1388 1388 1388 1388 1389 1390 1391 1391 1391 1391 1391 1390 1390 1391 1390 1390 1391 1391 1390